Skip to content

GuitarMania

2007.07.27 15:37

BWV1006a Prelude

(*.52.62.26) 조회 수 25028 댓글 7
이젠 더빨라지고 활기차졌죠??

마찬가지고 화장실녹음.


3분대 나올줄알았는데 4분이었네요..

Comment '7'
  • hunee 2007.07.27 15:52 (*.46.237.244)
    악보랑 다른 부분이 종종 보이네요...(잔실수와 상관없이)

    오른손 아르페지오 동일하게 유지하면서 차분히 하강하는 부분이
    종종 한번 더 치는거도 같고...해서 좀 이질감이 느껴집니다만...

    전체적인 평을 하자면 처음의 박력이 끝까지 살아나가지 않는게 아쉽군요.
    후반부로 흐름을 살리기 어려운 곡 특성상 (처음부터 마구 달리기 보다는)
    뒷부분을 좀더 차분히 연습하시면 좋을거 같습니다.
  • ldh2187 2007.07.28 01:01 (*.207.143.25)
    바하곡은 스피드가 문제가 아닙니다. 얼마나 수학적으로 연주하느냐가 문제죠.....

    연주시간이 문제가 아닙니다. 스피드를 빠르게 하다보면 나중에 감당하지못할정도가 됩니다.

    조금 쓴 소리가 됄줄 몰라도 좀더 천천히 연습하시길.....
  • 좁은길로 2007.07.28 19:57 (*.52.62.26)
    감사합니다~!!
    정말로..~!

    수학적으로 치려고 있는중!
  • 콩쥐 2007.07.30 16:26 (*.105.99.49)
    헉... 내겐 넘 빨라. 숨차당...
  • 누구게 2007.09.10 23:44 (*.106.127.169)
    빠르기 보다...분위기가 더 중요한거 같읍니다...좀 느리더라도 곡의 분위기를 살리는 게 중요하다고 생각합니다...다음 녹음은 분위기를 살려셔 해보시기를...
  • 정면 2007.09.11 09:35 (*.212.223.250)
    훌륭하군요.
    근데 캄파넬라부분 악보 정독하셔야겠네요.
    좋은연주네요.
  • 클래식89 2007.10.15 01:00 (*.151.28.31)
    이정도만 쳐도 수원대는 걍 가겠구만
?

List of Articles
번호 제목 글쓴이 날짜 조회 수
1836 Love Affair 6 2007.06.02 19040
1835 zapateado///rodrigo 13 김은미 2007.06.03 23953
1834 최후의 트레몰로 (리버브효과없는겁니다..;;) 4 file JoDaC 2007.06.09 19133
1833 최후의 트레몰로 입니다 ^^ 32 file JoDaC 2007.06.06 23330
1832 전설 11 file 최병욱 2007.06.06 23250
1831 I believe 13 file orpheus15 2007.06.08 19174
1830 Romance.3번. 10 file 우체국가는길 2007.06.08 23804
1829 Kiss the Rain 이루마 곡 (기타 연주) 44 file 아이모레스 2007.06.12 26607
1828 오 솔레미오 4 file 밀롱가. 2007.06.14 21091
1827 Recuerdos de la Alhambra -F. Tarrega 12 file Jason 2007.06.15 23494
1826 알함브라 다시녹음했습니다~ 14 file 최병욱 2007.06.16 21569
1825 [re] 소르 연습곡 6번-리버브를 넣어보았습니다. 1 file niceplace 2007.06.20 21644
1824 소르 연습곡 6번 8 file niceplace 2007.06.17 21718
1823 Romance.3번. 다시 올려요 6 file 우체국가는길 2007.06.17 25622
1822 뱃노래 - 코스트 12 file fernando 2007.06.19 22300
1821 유키구라모토의 Meditation 18 file 최병욱 2007.06.19 23588
1820 fredric hand의 연습곡 1번 4 file 루하기 2007.06.21 15654
1819 리브라소나티네 3.Fuoco-롤랑디용 27 file MSGr 2007.06.21 28246
1818 바흐 샤콘느 10 file 좁은길로 2007.06.26 23039
1817 쉘부르의 우산 3 file nice guy 2007.06.27 22401
1816 Koyunbaba - C. Domeniconi 25 file 진느 2007.06.27 19710
1815 F. Tarrega,Capricho Arabe 33 file Jason 2007.06.28 22570
1814 Agua e Vinho - Egberto Gismonti 18 file limnz 2007.06.29 21889
1813 BWV1006a 프렐류드 3 file 좁은길로 2007.06.29 21633
1812 이노래어떤가요? Pulo do Gato(P.Bellinati) 15 file MSGr 2007.07.01 26320
1811 L'HYMNE A L'AMOUR / E.PIAF 24 file April 2007.07.04 20764
1810 Kleine Romanze- L. Walker 10 file Jason 2007.07.05 20426
1809 Triste Santuario by Vincent Gomez-슬픈 예배당 17 file Jason 2007.07.05 24292
1808 대성당1악장 8 file 좁은길로 2007.07.05 19975
1807 이루마의 When the love falls 7 file 최병욱 2007.07.07 43325
1806 종소리 12 file 좁은길로 2007.07.07 23283
1805 소르의 마적입니다... 19 file 화가 2007.07.08 27611
1804 brahms-theme and variations 20 file 기타레타 2007.07.09 29559
1803 [영상] 엘레지 Elegie (메르츠 Mertz) 3 2007.07.09 22495
1802 이병우 - 달려 18 file 김상욱 2007.07.09 21851
1801 대성당2악장 4 file 좁은길로 2007.07.09 31220
1800 도적의 노래-ibach 연주 16 file 바하의꿈 2007.07.10 22767
1799 하프시 팟사 완주--! 4 file 좁은길로 2007.07.10 21051
1798 핑거스타일- Sun dance (Kotaro Oshio) 7 file 최병욱 2007.07.11 24921
1797 Giuliani-- Rossiniana No.1 (글로빌 아트홀 실황연주) 15 file LDH 2007.07.11 18519
1796 엔커리지먼트-소르 39 file 기타레타 2007.07.11 22654
1795 이 곡 제목이 뭔가요? 3 file -_ - 2007.07.12 18928
1794 헨델의 아리아 23 file 아이모레스 2007.07.12 22553
1793 G선상의 아리아 - J.S.BACH 43 file 기타레타 2007.07.13 23238
1792 이루마의 Kiss the Rain 6 file 최병욱 2007.07.13 22951
1791 Pierre Bensusan - 아도니스의 정원 12 file 찬찬 2007.07.14 24131
1790 Bach - BWV1007 Prelude & Allemande 16 file 김상욱 2007.07.14 21979
1789 Wonderful tonight 43 file - 情 - 2007.07.14 25057
1788 Variation on Theme of Mozart - F.Sor 32 file Jason 2007.07.15 22981
1787 월량대표아적심(月亮代表我的心) 29 이진성 2007.07.19 25197
1786 Fantasia Arabe by Sabicas 22 file Jason 2007.07.22 18853
1785 샤콘느 뒤에뒤부분 7 file 좁은길로 2007.07.23 19573
1784 유키 구라모토의 Lake Louise(새로운 편곡) 17 file 최병욱 2007.07.23 22774
1783 Aria no.1 - F. Kleynjans 11 file bradpitt 2007.07.24 22668
1782 Septiembre (Maximo Diego Pujol) 21 file 라일 2007.07.26 21370
1781 (이중주) Green Sleeves 20 file niceplace 2007.07.27 24168
» BWV1006a Prelude 7 file 좁은길로 2007.07.27 25028
1779 A. Piazzolla Quattro Stagioni (부에노스아이레스의 사계) 1. Primavera portend (봄) 8 file sgq 2007.07.27 22588
1778 A. Piazzolla Oblivion(망각) 3 file sgq 2007.07.27 22384
1777 A. Piazzolla Liebertango 1 file sgq 2007.07.27 23306
1776 P. Bellinati Baiao de Gude 서울기타콰르텟 4 file sgq 2007.07.27 23209
1775 사람이 꽃보다 아름다워~~~ 4 야매 2007.07.28 23281
1774 Fur Elise by L. Van Beethoven 62 file Jason 2007.07.28 26625
1773 부탁 김효석 2007.07.29 18591
1772 클레이앙스-로망스1번(이중주) 6 file 기타레타 2007.07.30 19114
1771 Lamento No.2 / F. Kleynjans 12 file 이진성 2007.08.01 20524
1770 The old rugged cross by G. Bennard 10 file Jason 2007.08.02 21956
1769 로망스 no.1(이중주)-끌레앙 16 file 체르니 2007.08.04 31733
1768 Sleeprs, Awake! 눈뜨라부르는소리있어 7 file 좁은길로 2007.08.05 19988
1767 Estudio No.12 / F. Sor 13 file 이진성 2007.08.06 22456
1766 Partners in Praise / 안신영님 편곡 10 file orpheus15 2007.08.07 19510
1765 알베니즈-야자나무 아래에서 13 file 기타레타 2007.08.08 28559
1764 로드리고 // 고풍스런 티엔토 30 file 진느 2007.08.08 25146
1763 Sor Etude#6 10 file 밀롱가. 2007.08.10 20323
1762 Classical Gas/Mason Williams -클래식컬 개스 23 file Jason 2007.08.10 22673
1761 Adelita 2 file sky600 2007.08.12 14784
1760 maria luisa 6 file sky600 2007.08.12 23565
1759 sunflower 14 file 한사랑 2007.08.13 21046
1758 Tango En Skai 11 file 좁은길로 2007.08.13 23907
1757 바흐 // Choral from cantata147 arr.David Russell 31 file 진느 2007.08.14 20411
1756 milonga 6 file 2007.08.15 21597
1755 [동영상] Barrios - Una Limosna por el amor de Dios (최후의 트레몰로) 39 file 김상욱 2007.08.17 27489
1754 텅 빈 놀이터 II by devilous 9 file devilous 2007.08.20 20198
1753 Sleepers, Awake! from Cantata BWV140 9 file April 2007.08.20 20071
1752 Yuichi Watanabe - Morning Dew 5 file 2007.08.21 23190
1751 Falla--ThreeCorneredHat(KimMoonHyung & Chung Sehee) 7 file 바하의꿈 2007.08.21 24664
1750 망고레의 Contemplacion (깊은 그리움) 24 file 아이모레스 2007.08.22 21963
1749 헨델의 대장간변주?^^ Handel--Blacksmith Variations 19 file 바하의꿈 2007.08.23 23610
1748 F. Sor의 인커리지먼트 18 file 바하의꿈 2007.08.24 24679
1747 알함브라궁전의 추억 12 file 정면 2007.08.24 21392
1746 죄송한! 탕고 안 스까이 바이 로랑디앙 (조율 맞춰 재업)ㅠ 8 file buyho 2007.08.26 16670
1745 Stairway to Heaven, Classical/Unplugged version 기악 독주 7 file 2007.08.28 25152
1744 Les Feuilles Mortes (고엽) - Joseph Kosma 20 file 고정석 2007.08.29 21367
1743 Beautiful Dreamer(토스토) 7 file 까치 2007.08.30 23060
1742 줄리아니 기타협주곡 5 file buyho 2007.09.04 20461
1741 가을편지 / 안형수 편곡 15 file orpheus15 2007.09.04 22604
1740 녹음은 어떻게 하나요? 2 소르초이 2007.09.05 19599
1739 TOmmy Emmanuel-Angelina 10 file 좁은길로 2007.09.05 19026
1738 내마음의 보석상자(동영상) 7 야매 2007.09.07 24356
1737 Venus(동영상) 4 야매 2007.09.07 27040
Board Pagination ‹ Prev 1 ... 11 12 13 14 15 16 17 18 19 20 21 22 23 24 25 26 27 28 29 30 ... 39 Next ›
/ 39

나눔글꼴 설치 안내


이 PC에는 나눔글꼴이 설치되어 있지 않습니다.

이 사이트를 나눔글꼴로 보기 위해서는
나눔글꼴을 설치해야 합니다.

설치 취소

Designed by sketchbooks.co.kr / sketchbook5 board skin

Sketchbook5, 스케치북5

Sketchbook5, 스케치북5

Sketchbook5, 스케치북5

Sketchbook5, 스케치북5

Powered by Xpress Engine / Designed by hikaru100

abcXYZ, 세종대왕,1234

abcXYZ, 세종대왕,1234